30.06.2024;16:00;69
30.06.2024;15:00;75
30.06.2024;14:00;82
30.06.2024;13:00;85
30.06.2024;12:00;91
30.06.2024;11:00;93
30.06.2024;10:00;94
30.06.2024;09:00;88
30.06.2024;08:00;80
30.06.2024;07:00;84
30.06.2024;06:00;91
30.06.2024;05:00;98
30.06.2024;04:00;93
30.06.2024;03:00;71
30.06.2024;02:00;69
30.06.2024;01:00;85
30.06.2024;00:00;93
29.06.2024;23:00;96
29.06.2024;22:00;97
29.06.2024;21:00;92
29.06.2024;20:00;98
29.06.2024;19:00;105
29.06.2024;18:00;109
29.06.2024;17:00;108
29.06.2024;16:00;106
29.06.2024;15:00;108
29.06.2024;14:00;106
29.06.2024;13:00;100
29.06.2024;12:00;95
29.06.2024;11:00;86
29.06.2024;10:00;76
29.06.2024;09:00;29
29.06.2024;08:00;16
29.06.2024;07:00;10
29.06.2024;06:00;9
29.06.2024;05:00;13
29.06.2024;04:00;19
29.06.2024;03:00;29
29.06.2024;02:00;37
29.06.2024;01:00;51
29.06.2024;00:00;57
28.06.2024;23:00;59
28.06.2024;22:00;82
28.06.2024;21:00;92
28.06.2024;20:00;99
28.06.2024;19:00;100
28.06.2024;18:00;102
28.06.2024;17:00;105
